Location: Splawn
(30.9202°N, 96.9858°W)
Time: 20:38:44
(UTC+00:00)

Transit 2A Rocket - Pass Details

Date: 02 March 2020
Orbit: 588 x 915 km, 66.7° (Epoch: 05 April)

Event Time Altitude Azimuth Distance (km) Brightness Sun altitude
Rises 12:02:53 0° 334° (NNW) 3,249 8.0 -11.5°
Reaches altitude 10° 12:05:12 10° 334° (NNW) 2,367 7.3 -11.0°
Maximum altitude 12:10:43 87° 246° (WSW) 850 5.2 -9.8°
Drops below altitude 10° 12:16:38 10° 157° (SSE) 2,540 8.0 -8.5°
Sets 12:19:12 0° 157° (SSE) 3,502 8.8 -8.0°
